[[{"header":{"parameterUnit":"m.s-1","parameterCategory":1,"la1":30.2991,"la2":30.254,"lo1":-89.0895,"lo2":-89.0444,"dy":0.0017,"dx":0.0017,"nx":28,"ny":28,"refTime":"2023-09-19T03:00:00:Z","depth":0,"parameterNumber":2,"parameterNumberName":"U-component_of_WINDS"},"data":[0,0,0,0,0,0,0,0,0,0,0,0,0,0,0,0,0,0,0,0,0,0,0,0,0,0,0,0,0,0,0,0,0,0,0,0,0,0,0,0,0,0,0,0,0,0,0,0,0,0,0,0,0,0,0,0,0,0,-2.4144,-2.4144,0,-2.4175,-2.4175,-2.4176,-2.4136,-2.4135,-2.4133,-2.4132,-2.4166,-2.4168,-2.417,0,0,0,0,0,0,0,0,0,0,0,0,0,-2.4054,-2.4056,-2.4144,-2.4144,-2.4145,-2.4175,-2.4175,-2.4176,-2.4136,-2.4135,-2.4133,-2.4131,-2.4165,-2.4168,-2.4171,0,0,0,0,0,0,0,0,0,0,0,0,0,-2.409,-2.4056,-2.4144,-2.4129,-2.4127,-2.4175,-2.4175,-2.4176,-2.4137,-2.4135,-2.4132,-2.413,-2.4164,-2.4168,-2.4171,-2.4235,0,0,-2.4181,-2.4183,0,0,0,0,0,0,0,0,-2.4088,-2.4093,-2.413,-2.413,-2.4129,-2.4149,-2.4156,-2.4196,-2.4137,-2.4133,-2.4132,-2.4129,-2.4162,-2.4166,-2.4176,-2.4237,-2.4238,-2.4182,-2.4184,-2.4185,-2.4186,0,0,0,0,0,0,0,-2.4085,-2.4092,-2.4156,-2.4131,-2.413,-2.4121,-2.4124,-2.4163,-2.416,-2.4134,-2.4131,-2.4135,-2.4161,-2.4173,-2.4177,-2.4239,-2.4182,-2.4185,-2.4187,-2.4188,-2.4356,-2.4358,0,0,0,0,0,0,-2.4084,-2.409,-2.4155,-2.4157,-2.4102,-2.4125,-2.4128,-2.4145,-2.4159,-2.4159,-2.4137,-2.4133,-2.4169,-2.4173,-2.4178,-2.4254,-2.4185,-2.4188,-2.419,-2.4353,-2.4356,-2.4359,0,0,0,0,0,0,-2.4082,-2.409,-2.4154,-2.4123,-2.413,-2.4129,-2.4148,-2.4147,-2.4158,-2.4162,-2.4161,-2.4149,-2.4167,-2.4173,-2.4222,-2.4255,-2.419,-2.4193,-2.435,-2.4354,-2.4357,-2.4407,0,0,0,0,0,0,-2.408,-2.409,-2.4113,-2.4124,-2.4132,-2.4196,-2.415,-2.4149,-2.4164,-2.4159,-2.4173,-2.4173,-2.4166,-2.4217,-2.4225,-2.4258,-2.4196,-2.4347,-2.4352,-2.4356,-2.4403,-2.4412,-2.442,0,0,0,0,0,-2.4077,-2.4126,-2.4115,-2.4123,-2.4161,-2.4198,-2.4203,-2.4192,-2.4167,-2.4191,-2.4194,-2.4173,-2.4251,-2.4222,-2.4231,-2.4266,-2.4345,-2.4351,-2.4356,-2.4399,-2.441,-2.442,0,0,0,0,0,0,-2.412,-2.4127,-2.4114,-2.4168,-2.4183,-2.4191,-2.422,-2.4205,-2.4227,-2.4222,-2.421,-2.4213,-2.4264,-2.4271,-2.4238,-2.433,-2.4294,-2.4301,-2.4323,-2.4334,-2.4343,-2.434,-2.4198,0,0,0,0,0,-2.4136,-2.4164,-2.417,-2.4217,-2.4225,-2.4222,-2.4237,-2.4229,-2.4243,-2.4249,-2.4255,-2.4271,-2.4299,-2.4318,-2.4344,-2.4405,-2.4407,-2.4434,-2.4442,-2.445,-2.4455,-2.4489,-2.4501,-2.4377,-2.4377,-2.4377,0,0,-2.4169,-2.4176,-2.4195,-2.4226,-2.4236,-2.4266,-2.4227,-2.4261,-2.4284,-2.4255,-2.43,-2.4306,-2.4323,-2.4378,-2.4402,-2.4384,-2.4491,-2.4457,-2.4462,-2.4464,-2.4496,-2.4508,-2.4518,-2.438,-2.438,-2.4379,0,0,-2.4243,-2.4252,-2.4292,-2.4304,-2.432,-2.4318,-2.4328,-2.4339,-2.4341,-2.4387,-2.4366,-2.4395,-2.4443,-2.4456,-2.4469,-2.4553,-2.4535,-2.4562,-2.4607,-2.464,-2.465,-2.4658,-2.4688,-2.4698,-2.4569,-2.4569,-2.4569,0,-2.4282,-2.4326,-2.4315,-2.4351,-2.4365,-2.4341,-2.4383,-2.4395,-2.4419,-2.443,-2.441,-2.4471,-2.4481,-2.4539,-2.456,-2.4572,-2.4583,-2.4559,-2.4649,-2.4658,-2.4666,-2.4693,-2.4704,-2.4572,-2.4571,-2.4571,-2.4571,0,-2.4372,-2.4404,-2.4435,-2.4458,-2.4477,-2.4515,-2.4511,-2.4532,-2.4523,-2.4524,-2.4572,-2.4584,-2.4612,-2.4626,-2.4617,-2.4683,-2.4672,-2.4651,-2.4614,-2.4681,-2.4706,-2.4717,-2.4576,-2.4575,-2.4574,-2.4573,0,0,-2.4471,-2.449,-2.4502,-2.4512,-2.453,-2.4554,-2.4593,-2.462,-2.4638,-2.4657,-2.4689,-2.4732,-2.4714,-2.4729,-2.4722,-2.4752,-2.4817,-2.4727,-2.4727,-2.4742,-2.4891,-2.4904,-2.4917,-2.4806,-2.4808,-2.481,-2.4889,0,-2.4545,-2.461,-2.4603,-2.4665,-2.4694,-2.4674,-2.4708,-2.4723,-2.4726,-2.4753,-2.4757,-2.4787,-2.4761,-2.477,-2.4798,-2.4803,-2.4846,-2.4797,-2.4836,-2.4838,-2.483,-2.493,-2.4944,-2.5018,-2.4899,-2.4901,-2.4902,0,-2.4638,-2.466,-2.4725,-2.4739,-2.4751,-2.4782,-2.4807,-2.4833,-2.4851,-2.4851,-2.4869,-2.4858,-2.4899,-2.4864,-2.492,-2.4887,-2.4903,-2.4909,-2.4911,-2.4912,-2.4872,-2.4933,-2.5041,-2.5051,-2.4918,-2.4917,-2.4915,0,-2.4702,-2.4748,-2.4793,-2.4803,-2.4822,-2.4843,-2.4852,-2.4868,-2.4886,-2.4909,-2.492,-2.4949,-2.4964,-2.4987,-2.4984,-2.4959,-2.5042,-2.5006,-2.5043,-2.5043,-2.5059,-2.5057,-2.5169,-2.5073,-2.5073,-2.5073,-2.5073,0,-2.4784,-2.4824,-2.4822,-2.4849,-2.4895,-2.4888,-2.4934,-2.4941,-2.4955,-2.4985,-2.4971,-2.4999,-2.4995,-2.5024,-2.5023,-2.507,-2.5077,-2.5079,-2.5078,-2.5079,-2.5078,-2.5087,-2.5081,-2.5076,-2.5075,-2.5075,-2.5074,0,-2.4861,-2.4862,-2.4909,-2.4923,-2.4928,-2.4961,-2.4973,-2.5,-2.5003,-2.5041,-2.505,-2.5055,-2.5089,-2.509,-2.5128,-2.5128,-2.5184,-2.5179,-2.5178,-2.5176,-2.5212,-2.5208,-2.5332,-2.5348,-2.5243,-2.5244,-2.5245,0,-2.4912,-2.4942,-2.496,-2.4978,-2.4988,-2.5018,-2.5036,-2.5033,-2.5052,-2.5077,-2.5101,-2.5133,-2.5158,-2.5214,-2.5222,-2.5252,-2.5246,-2.5287,-2.525,-2.525,-2.5245,-2.5242,-2.5245,-2.5294,-2.5295,-2.5296,-2.5297,0,-2.5001,-2.5,-2.5026,-2.5053,-2.5075,-2.5096,-2.5116,-2.5132,-2.5131,-2.5154,-2.5188,-2.5208,-2.5248,-2.5281,-2.5311,-2.5322,-2.5309,-2.5309,-2.5319,-2.5319,-2.5316,-2.5317,-2.5195,-2.5305,-2.5304,-2.5304,-2.5303,-2.5303,-2.5065,-2.5092,-2.5109,-2.5139,-2.5153,-2.5173,-2.5198,-2.5206,-2.5234,-2.5265,-2.5262,-2.53,-2.532,-2.5359,-2.5373,-2.5404,-2.5389,-2.5404,-2.5407,-2.541,-2.5413,-2.5314,-2.5409,-2.5409,-2.5409,-2.5409,-2.5408,0,-2.5152,-2.5163,-2.5191,-2.5219,-2.5243,-2.523,-2.5252,-2.5273,-2.5307,-2.5326,-2.5352,-2.5392,-2.5424,-2.5436,-2.5468,-2.549,-2.5486,-2.5499,-2.5496,-2.5499,-2.5425,-2.5412,-2.5502,-2.5502,-2.5502,-2.5502,-2.5502,-2.5502,-2.52,-2.5244,-2.5246,-2.5298,-2.5309,-2.5345,-2.5359,-2.5378,-2.5393,-2.5438,-2.5465,-2.5472,-2.5489,-2.5523,-2.5553,-2.5556,-2.5567,-2.5583,-2.5583,-2.5513,-2.5504,-2.5495,-2.5483,-2.5586,-2.5586,-2.5654,-2.5654,-2.5655]},{"header":{"parameterUnit":"m.s-1","parameterCategory":1,"la1":30.2991,"la2":30.254,"lo1":-89.0895,"lo2":-89.0444,"dy":0.0017,"dx":0.0017,"nx":28,"ny":28,"refTime":"2023-09-19T03:00:00:Z","depth":0,"parameterNumber":3,"parameterNumberName":"V-component_of_WINDS"},"data":[0,0,0,0,0,0,0,0,0,0,0,0,0,0,0,0,0,0,0,0,0,0,0,0,0,0,0,0,0,0,0,0,0,0,0,0,0,0,0,0,0,0,0,0,0,0,0,0,0,0,0,0,0,0,0,0,0,0,2.5989,2.5989,0,2.598,2.598,2.598,2.6036,2.6037,2.6039,2.604,2.6025,2.6023,2.6021,0,0,0,0,0,0,0,0,0,0,0,0,0,2.6048,2.6046,2.5989,2.5989,2.5989,2.598,2.598,2.598,2.6035,2.6037,2.6039,2.6041,2.6025,2.6023,2.6021,0,0,0,0,0,0,0,0,0,0,0,0,0,2.6029,2.6046,2.5989,2.6015,2.6018,2.598,2.598,2.598,2.6035,2.6037,2.604,2.6042,2.6026,2.6023,2.6021,2.5955,0,0,2.6012,2.6011,0,0,0,0,0,0,0,0,2.603,2.6026,2.6012,2.6013,2.6016,2.6012,2.5995,2.5972,2.6034,2.6028,2.604,2.6043,2.6018,2.6016,2.6009,2.5955,2.5954,2.6012,2.601,2.6009,2.6008,0,0,0,0,0,0,0,2.6031,2.6027,2.5985,2.6011,2.6014,2.6026,2.6026,2.5991,2.6009,2.6029,2.6033,2.6032,2.602,2.6012,2.6009,2.5954,2.6012,2.6009,2.6007,2.6006,2.5845,2.5843,0,0,0,0,0,0,2.6029,2.6028,2.5986,2.5985,2.6029,2.6023,2.6023,2.601,2.601,2.6013,2.6029,2.6034,2.6015,2.6012,2.6009,2.5931,2.6009,2.6006,2.6004,2.5848,2.5845,2.5842,0,0,0,0,0,0,2.603,2.6025,2.5986,2.6008,2.6004,2.602,2.6005,2.6009,2.6001,2.6011,2.6014,2.6018,2.6017,2.6013,2.5969,2.5932,2.6005,2.6002,2.5851,2.5847,2.5843,2.5777,0,0,0,0,0,0,2.6032,2.6025,2.6002,2.6007,2.6002,2.5947,2.6003,2.6007,2.5997,2.6003,2.6001,2.6003,2.6019,2.5973,2.5966,2.5929,2.6,2.5854,2.5849,2.5844,2.5782,2.5771,2.5762,0,0,0,0,0,2.6034,2.5982,2.6,2.5995,2.5973,2.5945,2.5942,2.5963,2.5994,2.5969,2.5976,2.6003,2.5938,2.5968,2.596,2.5922,2.5856,2.585,2.5845,2.5787,2.5773,2.5762,0,0,0,0,0,0,2.5969,2.5983,2.6003,2.5952,2.5947,2.5955,2.5924,2.5948,2.5933,2.5939,2.5964,2.5963,2.5914,2.5915,2.5948,2.5859,2.5902,2.5894,2.586,2.5848,2.5837,2.5837,2.5998,0,0,0,0,0,2.595,2.5927,2.594,2.5893,2.589,2.5908,2.5896,2.5913,2.5908,2.5906,2.5909,2.5902,2.588,2.5864,2.5844,2.5784,2.5783,2.5754,2.5744,2.5735,2.5727,2.5694,2.5681,2.5823,2.5823,2.5823,0,0,2.5907,2.5912,2.5896,2.588,2.5879,2.5853,2.5905,2.5876,2.5857,2.5901,2.5859,2.5862,2.5855,2.5802,2.5779,2.5801,2.5689,2.5728,2.5721,2.5718,2.5687,2.5674,2.5662,2.5819,2.582,2.582,0,0,2.5817,2.582,2.5781,2.5779,2.5777,2.5789,2.578,2.5784,2.5788,2.5748,2.578,2.5757,2.5719,2.5713,2.5704,2.5614,2.5638,2.5607,2.5552,2.5519,2.5508,2.5498,2.5464,2.5452,2.56,2.56,2.56,0,2.5764,2.5729,2.5757,2.5726,2.5718,2.576,2.5719,2.5715,2.5706,2.5698,2.5724,2.5677,2.5675,2.5621,2.56,2.5592,2.5581,2.5606,2.5508,2.5499,2.549,2.5457,2.5445,2.5596,2.5597,2.5597,2.5597,0,2.5663,2.5639,2.5607,2.56,2.5588,2.5552,2.5573,2.5558,2.5577,2.5586,2.5544,2.5544,2.5525,2.5514,2.5531,2.5463,2.5476,2.5504,2.5547,2.5472,2.5442,2.543,2.5591,2.5592,2.5593,2.5594,0,0,2.5529,2.554,2.5527,2.5524,2.5526,2.5506,2.5473,2.5457,2.5442,2.5435,2.5405,2.5374,2.54,2.5391,2.5408,2.538,2.5307,2.5412,2.5412,2.539,2.5229,2.5206,2.5191,2.5324,2.5322,2.532,2.5229,0,2.544,2.5384,2.5409,2.535,2.5326,2.5367,2.5337,2.5334,2.5343,2.5323,2.5331,2.5307,2.5346,2.534,2.5315,2.5321,2.5274,2.5329,2.5294,2.5293,2.5292,2.5176,2.5151,2.5064,2.5218,2.5216,2.5214,0,2.5327,2.5318,2.5256,2.5263,2.5254,2.5227,2.5215,2.5196,2.5193,2.5201,2.5192,2.5216,2.5182,2.5227,2.5179,2.5215,2.5204,2.5205,2.5202,2.5197,2.5247,2.5165,2.5038,2.5024,2.5197,2.5198,2.5199,0,2.5233,2.5205,2.5165,2.5161,2.5168,2.5148,2.515,2.515,2.5139,2.5128,2.512,2.5104,2.5095,2.5081,2.5099,2.5131,2.5048,2.5095,2.5051,2.5051,2.5029,2.503,2.4895,2.5026,2.5026,2.5026,2.5027,0,2.5128,2.5089,2.5122,2.5097,2.5054,2.5083,2.5039,2.5045,2.5045,2.502,2.5055,2.5031,2.5058,2.5036,2.505,2.5007,2.5003,2.5007,2.501,2.5002,2.5001,2.4992,2.4998,2.5023,2.5024,2.5024,2.5025,0,2.5014,2.5035,2.4994,2.5006,2.5008,2.4975,2.4984,2.496,2.4972,2.4941,2.4935,2.4953,2.4929,2.4947,2.4923,2.4932,2.4875,2.4889,2.4876,2.4879,2.4833,2.4836,2.4686,2.4667,2.4812,2.4811,2.481,0,2.4945,2.4916,2.4925,2.4912,2.4913,2.4891,2.4881,2.4909,2.4896,2.4892,2.4868,2.4848,2.4833,2.4792,2.4802,2.4783,2.4795,2.4744,2.4792,2.4785,2.4791,2.4792,2.4788,2.4733,2.4731,2.473,2.4728,0,2.4819,2.4832,2.4816,2.4805,2.4792,2.4783,2.4778,2.4765,2.4793,2.4777,2.4754,2.4743,2.472,2.4698,2.4684,2.4684,2.4709,2.4714,2.4702,2.4692,2.4685,2.4686,2.4847,2.4716,2.4717,2.4718,2.4719,2.4719,2.4724,2.47,2.4703,2.4684,2.4684,2.4678,2.4656,2.4667,2.4649,2.4633,2.4651,2.4623,2.4621,2.4605,2.4602,2.4579,2.46,2.4583,2.4579,2.4574,2.4566,2.4692,2.4577,2.4577,2.4577,2.4578,2.4578,0,2.4598,2.4603,2.4586,2.4578,2.4563,2.4593,2.4588,2.4573,2.4549,2.4546,2.4532,2.4505,2.4485,2.4494,2.4476,2.4456,2.4468,2.445,2.445,2.445,2.455,2.4561,2.4441,2.4441,2.4441,2.4441,2.4441,2.4441,2.4531,2.4491,2.4504,2.4464,2.4469,2.4444,2.4438,2.4432,2.4431,2.44,2.4385,2.4392,2.4393,2.4376,2.4358,2.4362,2.4352,2.433,2.4337,2.4429,2.4443,2.4455,2.4466,2.4328,2.4328,2.4238,2.4238,2.4237]}]]